Location: Lussas
(44.6119°N, 4.4726°E)
Time: 20:16:06
(UTC+00:00)

ATLAS 3B R/B - Pass Details

Date: 26 November 2020
Orbit: 1013 x 1182 km, 63.8° (Epoch: 08 January)

Event Time Altitude Azimuth Distance (km) Brightness Sun altitude
Exits shadow 05:46:59 - 322° (NW) 3,070 4.6 -11.6°
Reaches altitude 10° 05:47:25 10° 322° (NW) 2,919 4.5 -11.5°
Maximum altitude 05:54:22 83° 237° (WSW) 1,123 2.8 -10.4°
Drops below altitude 10° 06:01:35 10° 149° (SSE) 3,027 5.9 -9.2°
Sets 06:04:19 0° 149° (SSE) 4,004 6.6 -8.7°
